Location: Maccacari
(45.1333°N, 11.1333°E)
Time: 02:06:30
(UTC+00:00)

Altair - Pass Details

Date: 30 January 2021
Orbit: 1501 x 1682 km, 47.2° (Epoch: 01 March)

Event Time Altitude Azimuth Distance (km) Brightness Sun altitude
Rises 10:49:09 0° 290° (WNW) 4,939 9.9 26.7°
Reaches altitude 10° 10:53:35 10° 274° (W) 3,941 9.6 26.8°
Maximum altitude 10:59:52 19° 235° (SW) 3,261 9.7 27.0°
Drops below altitude 10° 11:06:06 10° 195° (SSW) 3,874 11.0 27.1°
Sets 11:10:27 0° 179° (S) 4,827 11.4 27.2°
